Station Nord

KL  EN  DA
ASIAQ
Weather Now GREENLAND SURVEY
Updated [WGT/WGST] Temperature [°C] Wind [m/s] Air pressure [hPa] Relative humidity [%] Precipitation [mm]
Present Wind chill Speed Max
17.01 13:00-17,50,0n/an/a101884n/a
17.01 12:00-17,10,0n/an/a101785n/a
17.01 11:00-16,90,0n/an/a101785n/a
17.01 10:00-17,10,0n/an/a101785n/a
17.01 09:00-16,70,0n/an/a101685n/a
17.01 08:00-16,70,0n/an/a101685n/a
17.01 07:00-16,50,0n/an/a101685n/a
17.01 06:00-16,70,0n/an/a101585n/a
17.01 05:00-16,90,0n/an/a101485n/a
17.01 04:00-17,20,0n/an/a101385n/a
17.01 03:00-18,00,0n/an/a101384n/a
17.01 02:00-18,30,0n/an/a101284n/a
17.01 01:00-17,90,0n/an/a101284n/a
17.01 00:00-17,40,0n/an/a101285n/a
16.01 23:00-17,40,0n/an/a101184n/a
16.01 22:00-18,00,0n/an/a101184n/a
16.01 21:00-18,40,0n/an/a101184n/a
16.01 20:00n/an/an/an/an/an/an/a
16.01 19:00-19,10,0n/an/a101083n/a
16.01 18:00-17,90,0n/an/a101084n/a
16.01 17:00-17,80,0n/an/a101084n/a
16.01 16:00-18,20,0n/an/a100984n/a
16.01 15:00-18,40,0n/an/a100983n/a
16.01 14:00-18,90,0n/an/a100983n/a
16.01 13:00-19,30,0n/an/a100983n/a
Position: (81.603333333,-16.66333333)

[Back]